Preview of NWS' New Version of Forecast
This preview is not operational and should not be used for support decisions.

Regional Weather Roundup (RWR)

Issued by National Weather Service (NWS)

                            
000
ASUS44 KMEG 201600
RWRTN 
TENNESSEE HOURLY STATE WEATHER ROUNDUP
NATIONAL WEATHER SERVICE MEMPHIS TN
1100 AM CDT TUE AUG 20 2019

TNZ002-004-019-021-049-052-054-088>092-201700-
WEST TENNESSEE
  
CITY           SKY/WX    TMP DP  RH WIND       PRES   REMARKS
MEMPHIS INTL   NOT AVBL                                               
NWS MEMPHIS      N/A     92 N/A N/A MISG        N/A                   
JACKSON        FAIR      90  77  65 CALM      30.11S HX 103           
$$

TNZ008-025-027-028-033-062-065-066-201700-
NORTH MIDDLE TENNESSEE
  
CITY           SKY/WX    TMP DP  RH WIND       PRES   REMARKS
NASHVILLE      PTSUNNY   89  72  56 S5        30.13S HX  96           
CLARKSVILLE    FAIR      89  76  65 VRB3      30.10F HX 100           
CROSSVILLE     FAIR      82  67  60 VRB5      30.21S                  
$$

TNZ061-075-076-078-094-096-097-201700-
SOUTH MIDDLE TENNESSEE
  
CITY           SKY/WX    TMP DP  RH WIND       PRES   REMARKS
$$

TNZ017-018-042-046-047-201700-
NORTHEAST TENNESSEE
  
CITY           SKY/WX    TMP DP  RH WIND       PRES   REMARKS
TRI CITIES     FAIR      86  66  51 CALM      30.19R                  
$$

TNZ012-013-036-069-073-074-201700-
CENTRAL EAST TENNESSEE
  
CITY           SKY/WX    TMP DP  RH WIND       PRES   REMARKS
KNOXVILLE      FAIR      85  66  53 W5        30.15R                  
OAK RIDGE      FAIR      87  68  52 CALM      30.16F HX  90           
$$

TNZ083-085-099-201700-
SOUTHEAST TENNESSEE
  
CITY           SKY/WX    TMP DP  RH WIND       PRES   REMARKS
CHATTANOOGA    FAIR      87  70  56 SE5       30.15R HX  92           
$$

SKY/WX REPORTED AS FAIR MEANS FEW OR NO CLOUDS BELOW
12 THOUSAND FEET.